SCP
0 0 0 0 0 0 0 0 0 0 0 0 0 0 0 0 0 0 0 0 0 0 -0 -0 -0 -0 -0 -0 -0 -0 -0 0 0 0 0 0 0 0 0 0 0 0 0 0 0 0 0 0 0
0 0 0 0 0 0 0 0 0 0 0 0 0 0 0 0 0 0 0 0 0 0 0 -0 -0 -0 -0 -0 -0 -0 -0 0 0 0 0 0 0 0 0 0 0 0 0 0 0 0 0 0 0
0 0 0 0 0 0 0 0 0 0 0 0 0 0 0 0 0 0 0 0 0 0 0 0 0 0 0 0 0 0 0 0 0 0 0 0 0 0 0 0 0 0 0 0 0 0 0 0 0
0 0 0 0 0 0 0 0 0 0 0 0 0 0 0 0 0 0 0 0 0 0 0 0 0 0 0 0 0 0 0 0 0 0 0 0 0 0 0 0 0 0 0 0 0 0 0 0 0
0 0 0 0 0 0 0 0 0 0 0 0 0 0 0 0 0 0 0 0 0 0 0 0 1 1 1 0 0 0 0 0 0 0 0 0 0 0 0 0 0 0 0 1 1 1 1 1 1
0 0 0 0 0 0 0 0 0 0 0 0 0 0 0 0 0 0 0 0 0 0 0 0 1 1 1 1 1 1 1 1 0 0 0 0 0 0 0 0 0 0 1 1 1 1 1 1 1
0 0 0 0 0 0 0 0 0 0 0 0 0 0 0 0 0 0 0 0 0 0 0 0 0 0 1 1 1 1 1 1 1 1 1 0 0 1 1 1 1 1 1 1 1 1 1 1 1
0 0 0 0 0 0 0 0 0 0 0 0 0 0 0 0 0 0 0 0 0 0 0 0 0 0 0 1 1 1 2 1 1 1 1 1 1 1 1 1 1 1 1 1 1 1 1 1 1
0 0 0 0 0 0 0 0 0 0 0 0 0 0 0 0 0 0 0 0 0 0 0 0 0 0 0 0 0 1 1 1 1 1 1 1 1 1 1 1 1 1 1 1 1 1 1 1 1
0 0 0 0 0 0 0 0 0 0 0 0 0 0 0 0 0 0 0 0 0 0 0 0 0 0 0 0 0 0 0 0 0 0 0 0 0 0 0 0 0 1 1 1 1 1 1 1 1
0 0 0 0 0 0 0 0 0 0 0 0 0 0 0 0 0 0 0 0 0 0 0 0 0 0 0 0 0 0 0 0 0 0 0 0 0 0 0 0 0 0 0 0 1 1 1 1 0
0 0 0 0 0 0 0 0 0 0 0 0 0 0 0 0 0 0 0 0 0 0 0 0 0 0 0 0 0 0 0 0 0 0 0 0 0 0 0 0 0 0 0 0 0 0 0 0 0
0 0 0 0 0 0 0 0 0 0 0 0 0 0 0 0 0 0 0 0 0 0 0 0 0 0 0 0 0 0 0 0 0 0 0 0 0 0 0 0 0 0 0 0 0 0 0 0 0
0 0 0 0 0 0 0 0 0 0 0 0 0 0 0 0 0 0 0 0 0 0 0 0 0 0 0 0 0 0 0 0 0 0 0 0 0 0 0 0 0 0 0 0 0 0 0 0 0
0 0 0 0 0 0 0 0 0 0 0 0 0 0 0 0 0 0 0 0 0 0 0 0 0 0 0 0 0 0 0 0 0 0 0 0 0 0 0 0 0 0 0 0 0 0 0 0 0
0 0 0 0 0 0 0 0 0 0 0 0 0 0 0 0 0 0 0 0 0 0 0 0 0 0 0 0 0 0 0 0 0 0 0 0 0 0 0 0 0 0 0 0 0 0 0 0 0
0 0 0 0 0 0 0 0 0 0 0 0 0 0 0 0 0 0 0 0 0 0 0 0 0 0 0 0 0 0 0 0 0 0 0 0 0 0 0 0 0 0 0 0 0 0 0 0 0
0 0 0 0 0 0 0 0 0 0 0 0 0 0 0 0 0 0 0 0 0 0 0 0 0 0 0 0 0 0 0 0 0 0 0 0 0 0 0 0 0 0 0 0 0 0 0 0 0
0 0 0 0 0 0 0 0 0 0 0 0 0 0 0 0 0 0 0 0 0 0 0 -0 -0 -0 -0 -0 -0 0 0 0 0 0 0 0 0 0 0 0 0 0 0 0 0 0 0 0 0
0 0 0 0 0 0 0 0 0 0 0 0 0 0 0 0 0 0 0 0 0 0 0 -0 -0 -0 -0 0 0 0 0 -0 0 0 0 0 0 0 0 0 0 0 0 0 0 0 0 0 0
0 0 0 0 0 0 0 0 0 0 0 0 0 0 0 0 0 0 0 0 -0 -0 -0 -0 0 0 0 0 0 0 0 0 0 0 0 0 0 0 0 0 0 0 0 0 0 0 0 0 0
0 0 0 0 0 0 0 0 0 0 0 0 0 0 0 0 0 0 0 0 -0 -0 -0 0 0 0 0 0 0 0 0 0 0 0 0 0 0 0 0 0 0 0 0 0 0 0 0 0 0
0 0 0 0 0 0 0 0 0 0 0 0 0 0 0 0 0 0 0 -0 -0 -0 0 0 0 0 0 0 0 0 0 0 0 0 0 0 0 0 0 0 0 0 0 0 0 0 0 0 0
0 0 0 0 0 0 0 0 0 0 0 0 0 0 0 0 0 0 0 0 0 0 0 0 0 0 0 0 0 0 0 0 0 0 0 0 0 0 0 0 0 0 0 0 0 0 0 0 0
0 0 0 0 0 0 0 0 0 0 0 0 0 0 0 0 0 0 0 0 0 0 0 0 0 0 0 0 0 0 0 0 0 0 -0 -0 -0 -0 0 0 0 0 0 0 0 0 0 0 0
0 0 0 0 0 0 0 0 0 0 0 0 0 0 0 0 0 0 0 0 0 0 0 0 0 0 0 0 0 0 0 0 0 -0 -0 -0 -0 -0 0 0 0 0 0 0 0 0 0 0 0
0 0 0 0 0 0 0 0 0 0 0 0 0 0 0 0 0 0 0 0 0 0 0 0 0 0 0 0 0 0 0 0 -0 -0 -0 -0 -0 -0 0 0 0 0 0 0 0 0 0 0 0
0 0 0 0 0 0 0 0 0 0 0 0 0 0 0 0 0 0 0 0 0 0 0 0 0 0 0 0 0 0 0 0 -0 -0 -0 -0 -0 0 0 0 0 0 0 0 0 0 0 0 0
0 0 0 0 0 0 0 0 0 0 0 0 0 0 0 0 0 0 0 0 0 0 0 0 0 0 0 0 0 0 0 -0 -0 -0 0 0 0 0 0 0 0 0 0 0 0 0 0 0 0
0 0 0 0 0 0 0 0 0 0 0 0 0 0 0 0 0 0 0 0 0 0 0 0 0 0 0 0 0 0 0 0 0 0 0 0 0 0 0 0 0 0 0 0 0 0 0 0 0
Wind_Speed
9 5 3 5 7 8 5 4 3 6 5 3 2 6 8 6 6 4 5 5 3 2 2 3 5 5 4 4 4 3 2 1 1 1 2 3 4 4 5 6 6 7 7 7 6 6 5 4 4
3 3 5 6 8 7 5 7 7 6 5 2 4 6 9 8 5 5 8 7 5 4 3 2 3 4 4 4 5 5 4 4 3 3 3 4 5 6 6 7 7 8 9 9 8 7 6 5 6
3 5 6 6 6 4 4 7 5 6 4 5 5 7 7 8 10 9 10 5 7 6 4 3 2 3 4 5 5 6 6 5 5 5 5 6 6 7 7 8 9 8 8 9 8 8 7 6 6
4 6 7 9 9 3 2 5 6 5 8 10 5 7 6 9 12 10 12 8 9 8 6 5 4 3 4 5 5 6 7 7 7 7 7 7 8 8 8 8 9 7 6 6 6 6 7 6 5
5 6 9 8 6 5 4 6 6 7 7 9 6 6 6 12 17 14 15 15 14 11 10 10 10 8 6 6 6 7 7 7 8 9 7 7 10 10 9 8 8 6 4 4 5 5 5 5 4
6 7 8 5 4 5 4 5 5 8 7 9 10 5 7 13 23 18 17 19 19 18 17 17 21 19 14 9 7 7 7 8 9 9 7 9 10 10 9 9 9 7 6 4 4 5 5 5 4
6 7 5 4 3 5 7 5 7 6 10 12 11 6 7 19 20 14 16 19 20 21 20 18 18 18 20 18 13 11 9 9 9 9 9 10 10 10 10 10 10 8 7 6 6 6 5 5 5
5 7 5 3 3 4 6 6 8 13 10 8 10 11 9 15 16 11 18 20 20 20 20 19 18 18 16 14 19 19 15 13 12 11 9 10 9 9 9 8 9 10 8 8 8 8 7 6 5
4 8 4 1 2 3 8 8 8 9 9 12 11 9 7 10 11 20 24 23 23 22 20 19 19 19 17 16 20 20 20 20 18 12 11 9 5 4 5 6 9 11 10 10 10 9 9 7 6
6 5 2 1 2 6 9 10 7 10 14 12 12 14 10 10 20 25 24 22 22 21 19 18 19 19 17 14 13 12 12 14 15 13 13 8 5 4 5 7 10 11 11 11 12 12 10 7 3
5 4 1 4 5 7 8 12 13 9 15 10 10 12 12 19 23 22 18 13 14 11 16 17 17 16 16 12 11 9 8 10 12 15 16 12 8 5 4 3 4 5 7 6 7 7 4 3 3
4 4 5 5 7 9 9 8 14 19 9 7 7 8 13 20 19 17 16 14 13 15 17 15 15 15 14 12 10 10 9 9 9 12 15 12 8 8 7 4 4 3 2 3 3 3 4 4 4
5 6 10 17 26 21 22 17 16 13 8 7 9 15 18 17 14 12 12 14 16 17 18 17 15 17 14 11 10 11 10 10 9 9 11 12 9 10 9 7 6 5 3 3 3 3 4 4 4
4 7 9 8 13 11 22 13 10 8 7 10 14 15 14 15 15 16 18 18 18 17 17 16 15 17 15 12 9 7 7 8 8 8 11 12 9 9 10 9 7 6 5 3 3 4 4 4 3
4 9 9 6 7 7 15 16 10 7 7 12 12 12 14 15 16 15 14 14 13 14 14 16 15 16 16 14 12 9 6 7 7 8 9 11 11 11 11 9 9 8 7 6 4 4 3 3 4
6 6 6 5 5 5 13 9 7 8 9 12 11 11 12 13 13 11 13 13 12 13 15 15 16 15 14 12 11 9 8 7 6 6 7 10 12 12 11 9 9 10 8 6 5 4 3 4 4
9 5 4 4 9 6 11 9 7 8 11 12 10 10 10 12 13 12 13 13 12 12 13 15 15 16 15 13 10 9 8 7 6 6 6 9 11 12 10 9 8 10 8 7 7 5 4 4 5
2 2 3 4 6 10 13 12 8 6 11 10 10 10 12 13 12 10 12 12 12 11 12 14 16 16 14 11 9 8 8 7 6 6 8 11 10 12 10 8 10 10 8 8 7 8 6 5 5
3 3 3 4 5 9 13 12 7 5 8 11 11 12 12 11 9 9 11 13 14 15 16 17 18 17 15 13 13 13 12 10 9 7 11 13 13 13 11 9 10 10 9 9 10 9 8 6 4
5 5 4 6 7 9 11 9 5 5 6 5 7 9 10 11 12 13 14 15 15 14 14 15 16 16 14 13 12 11 12 10 10 10 12 12 14 14 12 12 11 11 10 11 10 9 7 5 4
3 3 2 5 6 6 9 4 2 2 2 4 6 6 8 11 11 11 13 13 15 15 16 16 16 16 14 16 12 12 10 10 11 12 12 13 16 14 13 12 11 11 10 10 11 10 9 8 6
2 1 2 5 7 6 6 4 4 1 3 6 8 9 10 10 9 9 13 15 17 16 15 15 16 16 15 16 15 17 14 13 14 12 12 15 15 14 13 12 12 11 10 11 12 11 9 9 8
5 3 1 2 5 4 2 3 2 1 3 5 7 8 9 9 8 9 11 13 15 15 15 15 16 15 16 16 16 16 14 13 12 13 14 13 12 11 12 12 10 10 9 11 13 13 12 8 8
4 3 3 5 4 2 1 4 3 0 1 4 6 8 10 9 8 8 9 10 11 12 14 15 16 15 15 16 16 16 17 18 18 17 16 14 12 11 11 13 9 9 9 10 11 12 15 12 10
9 8 7 8 5 3 1 2 3 3 2 2 6 9 9 8 8 9 10 11 13 14 15 16 17 16 15 16 16 16 17 17 17 17 16 16 13 13 16 17 13 12 11 11 11 12 13 13 11
4 5 5 2 6 6 1 2 4 4 2 3 5 8 8 8 7 8 9 10 12 14 15 16 17 17 17 16 16 14 15 13 12 16 16 15 13 14 18 19 18 18 16 15 12 11 13 12 11
3 3 1 4 3 5 3 1 1 1 5 6 7 8 7 7 7 8 8 9 11 12 13 15 16 17 17 17 17 14 14 14 15 16 15 13 14 15 19 20 19 19 18 16 14 11 12 11 10
5 4 4 3 4 7 6 3 2 3 8 8 8 9 8 7 7 7 8 10 12 12 11 12 14 15 15 16 15 15 14 14 15 15 16 17 17 17 19 19 19 19 17 15 13 11 10 10 8
3 4 5 3 2 3 7 4 5 3 5 8 9 8 7 9 9 8 8 9 11 11 10 12 14 16 16 16 15 15 14 15 15 14 16 16 17 18 18 19 19 18 17 17 14 11 9 7 6
3 3 4 1 3 3 3 6 3 2 4 6 8 7 6 7 8 7 7 8 10 11 11 12 13 14 15 15 15 15 16 16 16 15 16 17 17 17 17 17 18 18 17 17 17 16 12 8 6
Wind_Direction
337 352 49 53 53 53 50 1 334 334 351 8 59 98 90 75 79 81 316 18 37 78 138 212 191 202 215 222 234 245 257 320 23 23 327 303 297 299 301 292 280 269 263 253 244 236 231 219 198
339 6 48 56 72 61 10 346 357 346 317 321 54 62 57 38 22 5 344 351 41 65 65 23 217 224 237 243 248 251 251 260 276 284 284 288 290 289 294 302 300 280 265 257 250 244 238 225 210
23 49 71 65 66 75 355 335 324 312 356 35 58 50 54 16 352 346 321 356 52 54 47 18 277 260 266 263 263 262 256 251 255 254 254 263 273 281 288 296 304 300 274 261 254 248 245 238 223
56 44 53 68 67 35 349 320 319 351 17 18 50 52 63 42 344 326 333 22 39 31 22 2 326 298 287 280 273 270 267 262 264 262 259 266 269 264 270 285 295 303 295 281 271 256 252 253 241
59 69 60 57 50 353 347 341 349 39 27 4 38 79 52 4 351 2 18 30 30 23 15 6 357 339 317 299 286 276 273 270 272 272 263 272 281 273 259 265 274 277 292 306 300 284 270 267 259
50 62 72 64 32 344 356 343 21 38 23 16 12 68 69 353 6 5 24 35 33 27 21 13 6 359 347 325 305 294 285 273 273 283 280 280 277 280 272 263 261 254 258 274 288 293 289 287 284
81 73 80 92 48 16 357 10 34 28 35 10 347 39 11 358 357 356 26 34 31 28 23 16 9 3 356 345 333 320 309 299 289 287 283 287 285 283 288 282 271 260 260 264 268 271 278 285 288
103 89 68 63 66 25 360 47 50 36 37 9 23 36 4 337 337 1 35 34 30 27 24 16 11 8 2 357 355 351 342 331 317 300 284 284 284 281 288 290 278 267 261 258 262 261 258 260 268
75 72 74 86 106 48 25 52 53 45 53 46 45 39 354 329 359 33 33 28 25 24 22 16 14 12 8 11 10 8 7 0 353 336 320 310 301 293 288 282 279 271 263 258 258 257 253 250 253
68 93 104 66 91 89 57 45 44 59 42 34 27 23 12 21 36 39 34 27 22 17 18 18 16 12 11 10 9 6 8 3 2 360 352 340 324 301 290 281 278 275 271 265 261 257 254 249 244
70 117 61 36 67 90 87 59 32 74 46 19 14 10 19 35 38 37 34 27 21 12 18 18 17 15 15 10 8 8 5 3 1 3 1 351 341 329 320 307 298 290 283 272 265 263 252 244 233
65 50 39 24 51 61 62 72 60 55 60 24 25 27 33 37 33 28 25 21 15 18 16 11 15 14 13 12 10 11 7 4 1 358 1 359 351 345 336 322 306 290 278 274 265 253 252 251 247
54 61 65 79 77 82 83 77 78 51 37 34 44 42 37 34 27 21 23 22 17 14 9 5 8 9 5 6 6 11 6 4 357 358 1 2 356 349 340 330 321 308 293 276 272 263 260 257 255
49 75 104 86 86 76 79 69 72 44 26 40 41 39 35 31 25 25 23 21 17 13 8 2 6 6 0 359 357 359 359 357 358 0 360 360 356 350 344 335 327 319 308 285 265 261 261 262 256
88 92 81 75 101 140 90 58 51 45 41 44 33 27 32 30 28 27 21 19 14 10 7 5 3 3 358 353 349 349 345 348 353 354 355 358 356 352 346 339 335 331 319 300 279 262 247 248 246
50 61 66 34 55 77 84 80 35 37 51 44 26 19 24 25 24 22 20 16 11 7 4 2 359 356 351 346 342 339 338 339 341 342 349 354 353 351 345 337 333 331 324 308 290 271 259 250 241
31 47 46 40 28 55 86 101 54 35 52 44 24 17 19 18 18 16 13 9 5 4 0 358 355 353 348 342 338 332 329 332 333 337 346 349 349 348 341 329 326 328 323 314 300 284 253 253 251
5 46 45 56 39 63 90 95 69 43 55 43 25 18 16 15 5 -0 3 1 359 0 359 356 355 353 348 345 339 334 331 330 329 332 344 343 342 341 335 325 326 325 322 320 312 295 274 247 246
158 115 87 70 96 80 92 94 75 40 46 36 23 16 8 358 345 355 3 1 359 -0 360 358 356 352 353 352 348 343 339 337 334 335 340 335 336 335 330 328 325 323 317 312 307 299 285 266 237
108 105 102 103 91 98 104 95 73 42 50 37 18 7 355 349 353 357 360 359 356 353 354 355 354 350 353 352 344 338 331 330 332 334 332 333 335 331 330 328 323 319 316 312 310 306 291 275 227
55 122 161 144 83 95 117 99 86 40 50 38 17 359 354 355 348 351 357 356 353 352 352 351 349 348 353 353 346 341 336 335 338 336 333 335 332 329 326 324 322 318 315 311 310 304 292 283 267
314 293 253 180 146 176 156 167 197 191 17 14 359 351 348 346 345 352 356 354 352 349 347 348 347 348 355 354 349 347 344 339 335 330 326 326 324 322 322 321 318 315 314 310 308 307 298 283 274
280 317 263 156 144 106 126 142 210 292 5 351 339 335 331 336 341 351 355 353 349 346 349 349 345 350 354 351 347 345 340 336 330 329 325 324 318 310 308 308 307 307 306 304 304 306 299 285 269
314 23 76 60 81 117 280 192 232 247 341 314 321 325 325 332 342 346 348 351 346 350 355 349 346 349 352 348 346 343 340 337 333 333 330 329 324 319 312 310 300 296 295 296 298 297 294 286 271
25 42 20 5 1 266 125 130 205 180 193 276 311 317 321 333 341 340 345 352 352 355 357 348 346 347 350 347 345 342 341 336 332 331 327 326 326 328 327 325 317 311 301 294 290 287 287 282 270
32 78 106 271 273 288 346 199 218 185 219 272 293 304 315 328 334 336 345 350 350 355 356 350 347 346 347 345 342 339 341 337 331 328 322 323 325 325 325 325 320 315 308 301 290 285 281 276 265
73 72 133 162 278 281 271 175 241 231 308 302 300 310 323 333 338 342 352 355 352 355 356 348 345 344 344 342 339 338 340 337 333 328 325 327 326 325 328 327 324 319 312 303 292 281 280 275 263
97 115 72 66 336 303 301 237 206 280 301 308 316 322 330 343 347 357 3 1 354 351 349 343 342 341 339 339 338 339 336 335 335 333 332 329 328 328 330 332 329 327 324 317 304 287 282 274 263
36 56 78 94 173 240 298 293 172 233 294 309 311 319 337 344 349 359 3 0 349 344 347 344 344 343 341 339 337 335 335 337 337 336 332 330 329 330 334 336 335 338 343 341 333 320 305 292 280
115 118 127 153 266 208 240 272 174 197 297 308 314 326 339 342 344 350 356 352 346 342 345 344 345 344 341 339 337 336 336 337 337 335 333 332 332 333 335 339 340 344 353 355 353 348 346 348 339